Vorticity
7 7 8 8 8 8 7 8 9 9 9 10 10 9 7 8 11 11 6 6 4 7 4 10 23 25 -0 -15 4 2 11 20 30 31 7 13 16 -2 12 -6 -2 7 11 6 39 2 9 20 -1 7 -3 5 -0 -35
12 10 11 11 10 9 8 9 10 9 9 11 11 9 9 8 7 9 9 6 7 7 -8 -0 4 5 5 19 22 11 18 13 -13 -2 -18 18 3 -8 -9 -14 18 3 -11 -3 -11 -41 -27 -24 -20 -4 11 1 10 17
11 12 12 11 10 11 10 9 9 9 9 10 10 9 8 8 8 6 9 6 8 6 10 32 18 -27 -9 36 7 -2 -9 17 28 23 7 15 -4 7 -3 4 30 8 17 -2 33 1 12 18 19 -2 2 -4 -2 7
8 8 10 13 11 10 11 7 8 8 10 8 8 9 8 8 8 7 7 7 7 8 10 56 72 38 -33 -53 -9 -12 -34 -21 -9 6 12 10 -12 19 9 3 11 -4 -7 -18 -12 -4 1 23 29 10 13 -1 -1 -3
8 9 8 6 13 12 9 14 11 9 7 5 10 5 8 9 7 9 9 10 9 11 -19 -5 -4 -2 18 22 17 14 19 13 8 17 7 1 -1 7 4 20 15 3 19 28 11 19 16 5 15 15 7 4 7 4
18 14 13 9 10 2 7 9 11 15 11 11 5 9 7 6 13 9 9 9 14 16 10 12 14 -1 -3 3 18 20 10 11 14 15 11 6 16 20 26 11 9 -1 -2 13 8 12 14 11 13 10 9 14 6 18
8 15 16 16 21 21 13 9 12 6 9 4 16 8 4 9 9 9 13 10 16 11 9 31 46 36 14 24 37 2 12 13 19 12 3 6 19 6 2 -3 16 6 32 27 14 21 26 40 32 27 8 6 8 16
27 14 11 15 16 14 16 19 18 15 10 15 15 14 14 15 10 13 18 13 13 17 12 11 -24 25 6 17 23 23 15 7 5 8 14 14 5 6 -0 9 18 14 -1 25 14 9 10 10 10 14 6 16 10 12
15 21 20 17 13 15 13 12 12 17 17 20 19 17 15 13 13 13 13 12 16 9 -2 -1 -1 21 38 13 9 8 19 8 11 7 11 16 5 -20 -7 -18 2 24 38 18 8 13 11 11 10 17 10 19 15 12
5 1 7 9 15 16 16 22 20 22 16 20 17 19 17 15 21 25 29 21 17 12 -7 -8 9 -2 15 9 8 22 21 34 -4 19 55 39 2 16 21 20 20 14 9 25 8 6 10 13 12 11 10 3 2 10
9 7 1 1 0 -1 -2 -0 4 11 14 16 14 13 13 10 16 5 21 12 19 19 35 19 36 44 36 18 12 8 2 5 18 15 18 14 6 2 10 20 26 18 17 22 10 6 14 17 15 18 15 21 13 14
15 14 12 12 12 10 11 10 10 7 9 12 10 15 19 16 25 24 19 23 7 18 8 6 14 18 20 23 37 30 29 28 1 12 1 1 6 18 24 11 5 13 -3 1 0 10 17 23 9 20 14 14 12 14
19 15 13 15 14 17 13 14 12 12 7 7 10 14 27 19 6 3 12 -7 7 19 -1 2 9 12 18 22 7 -1 20 19 18 16 -5 1 6 22 11 8 13 18 19 22 22 30 1 16 10 -32 1 1 2 2
12 18 17 13 13 13 15 17 15 13 9 7 13 2 -2 3 21 23 -4 -3 16 -10 2 -1 2 2 21 18 5 -1 17 40 39 -5 5 12 13 21 25 9 36 -4 12 -6 -27 -10 -2 -4 -2 -1 -1 12 13 9
7 7 14 18 14 10 11 15 14 14 14 6 -4 9 21 4 -6 -18 13 25 30 24 19 13 17 15 13 27 6 3 12 4 -5 -8 -14 -5 10 16 -8 -29 -17 -6 7 10 15 17 15 14 15 17 22 14 11 18
12 11 6 14 14 11 10 16 10 10 11 9 -11 -7 4 3 6 9 5 1 7 11 11 8 14 27 24 10 -2 -8 5 -1 1 -20 -18 -10 -7 -9 -14 -10 3 3 4 8 12 13 12 10 14 15 14 12 14 11
18 14 12 12 13 17 14 10 4 13 24 14 8 11 9 0 -13 -20 -18 -17 -18 -15 -5 6 9 2 0 17 5 -8 -6 0 3 2 8 8 5 6 17 22 17 14 18 13 9 10 7 3 1 9 12 15 13 12
17 16 16 14 14 17 10 14 11 -18 35 47 7 10 23 28 26 25 26 27 20 13 14 14 16 13 -16 -12 -16 -12 6 14 14 10 8 9 -4 4 8 12 13 8 9 13 11 5 3 7 11 10 18 18 15 19
17 19 17 17 9 15 13 11 9 2 -1 7 8 21 26 19 16 18 17 4 7 9 6 3 11 1 -0 1 -1 9 22 22 18 19 15 14 22 23 14 9 7 8 10 11 4 3 10 6 9 11 18 21 18 22
18 16 20 16 10 8 13 36 25 15 13 16 17 15 8 8 13 17 16 16 19 21 18 11 8 12 21 14 14 9 13 15 16 13 10 3 4 6 9 13 16 19 19 20 13 7 5 10 9 14 13 7 2 1
14 14 17 10 9 14 6 -10 41 44 37 24 19 26 26 25 16 7 4 28 18 16 15 11 6 3 12 15 17 17 14 11 10 7 6 19 25 18 12 12 5 7 11 14 14 15 15 14 14 10 6 5 5 9
10 13 15 16 13 4 23 14 10 2 -4 -5 14 29 41 25 9 -5 3 10 4 6 21 13 20 19 16 12 9 15 15 11 6 9 3 10 15 16 20 18 18 18 20 18 14 11 16 10 11 9 9 13 13 9
7 12 12 9 13 18 3 -16 -7 41 14 -2 13 -11 -6 9 12 12 4 5 7 13 29 15 10 18 6 20 21 21 14 22 19 12 5 6 8 9 7 10 8 7 8 1 12 19 8 8 9 7 7 6 8 9
3 10 8 5 8 16 10 10 9 9 13 17 20 14 -2 2 6 11 7 11 13 12 21 36 11 22 7 11 16 17 1 8 10 10 9 11 11 14 13 13 12 13 9 14 14 12 11 10 7 7 13 7 8 12
-2 12 -7 20 32 13 16 11 5 10 -3 1 7 8 -2 13 9 16 6 2 29 25 20 14 10 13 8 14 17 12 8 1 9 16 20 9 11 10 6 -1 5 19 24 22 22 28 15 18 20 13 10 13 14 14
10 18 -16 9 16 10 8 11 1 -0 15 19 1 7 11 18 20 -11 24 8 25 16 4 1 5 8 13 12 12 15 17 10 3 10 17 4 9 4 3 17 23 4 21 30 23 21 18 19 17 14 12 14 17 15
5 -18 13 17 7 7 7 1 9 9 5 4 11 25 24 9 -3 -0 7 4 -4 11 10 10 7 9 10 8 10 3 10 3 2 13 18 23 30 32 27 12 7 16 21 21 19 22 21 17 14 14 15 13 11 13
3 -1 5 1 -2 -7 -6 -0 -3 -9 -4 -1 21 6 15 3 -14 13 11 16 33 13 12 11 6 4 6 11 14 9 9 11 14 13 11 11 13 12 9 5 16 22 18 23 20 12 10 10 10 10 10 11 12 14
6 8 10 10 12 4 -0 -4 -3 10 40 28 18 6 2 13 19 17 12 11 10 9 8 2 1 12 21 13 14 17 19 19 19 13 9 8 16 22 24 18 19 16 15 11 16 17 18 18 13 13 11 11 15 19
1 9 3 8 12 16 30 31 13 4 17 22 20 16 15 15 24 25 20 17 14 7 6 30 30 26 24 23 16 14 9 7 9 13 14 9 11 17 16 15 14 13 13 15 15 16 16 16 17 19 15 13 13 12
16 14 13 18 14 15 14 13 19 19 12 13 9 14 4 3 11 29 40 45 45 33 16 10 10 8 9 9 10 14 14 11 10 14 15 14 18 24 28 29 28 24 22 24 25 25 23 18 15 14 17 25 33 37
13 9 6 5 10 11 18 13 9 2 12 11 9 44 42 41 35 21 13 13 9 13 12 16 18 17 15 12 9 13 16 11 15 24 23 21 20 27 26 22 26 27 20 13 11 13 16 27 35 32 23 22 23 27
10 11 12 12 12 7 1 8 5 2 4 7 39 19 24 17 13 17 19 14 11 10 14 13 13 10 13 16 17 21 23 18 19 21 19 18 20 20 17 11 13 14 20 24 26 28 28 21 19 18 20 24 25 23
Height
3113 3115 3115 3116 3116 3117 3119 3120 3122 3122 3122 3124 3124 3123 3122 3122 3123 3124 3123 3122 3122 3122 3123 3121 3121 3120 3119 3119 3117 3116 3115 3112 3111 3110 3111 3110 3107 3106 3103 3100 3099 3100 3099 3094 3092 3091 3080 3074 3075 3078 3075 3068 3066 3062
3102 3104 3105 3106 3108 3108 3109 3110 3112 3112 3113 3114 3115 3115 3115 3116 3115 3115 3116 3114 3113 3114 3116 3113 3113 3114 3113 3111 3109 3107 3108 3107 3108 3107 3105 3102 3101 3098 3097 3095 3094 3091 3091 3087 3084 3078 3075 3072 3071 3069 3066 3062 3058 3052
3093 3094 3095 3097 3098 3099 3100 3102 3103 3103 3103 3105 3105 3105 3106 3107 3108 3108 3108 3107 3105 3104 3106 3105 3103 3105 3105 3103 3099 3099 3100 3101 3100 3099 3097 3095 3092 3090 3088 3085 3085 3083 3084 3076 3073 3066 3068 3068 3065 3062 3058 3052 3048 3046
3083 3084 3085 3087 3088 3088 3089 3092 3094 3094 3094 3095 3095 3095 3096 3097 3098 3099 3099 3099 3097 3096 3092 3096 3092 3093 3093 3094 3096 3095 3094 3092 3091 3089 3086 3083 3081 3080 3075 3074 3074 3078 3076 3068 3058 3057 3056 3054 3054 3052 3046 3042 3039 3035
3072 3073 3074 3077 3078 3078 3079 3080 3083 3084 3085 3085 3085 3086 3087 3088 3088 3088 3089 3090 3088 3091 3082 3081 3084 3088 3085 3084 3086 3085 3084 3083 3080 3077 3073 3071 3068 3070 3064 3061 3054 3065 3060 3055 3040 3050 3047 3042 3043 3040 3035 3032 3028 3025
3061 3062 3063 3066 3068 3068 3069 3071 3072 3073 3074 3075 3075 3076 3077 3078 3079 3079 3079 3081 3080 3077 3073 3065 3065 3070 3073 3074 3073 3072 3072 3069 3068 3064 3062 3059 3059 3061 3052 3040 3041 3045 3048 3045 3036 3036 3032 3029 3028 3027 3024 3021 3018 3016
3051 3051 3052 3054 3057 3058 3058 3060 3061 3062 3065 3065 3065 3066 3067 3068 3068 3070 3071 3071 3069 3069 3065 3058 3052 3048 3055 3061 3062 3062 3061 3059 3059 3055 3049 3050 3050 3049 3039 3025 3036 3035 3037 3034 3030 3025 3018 3020 3015 3016 3013 3010 3008 3006
3041 3042 3042 3043 3046 3049 3049 3049 3051 3051 3052 3054 3055 3056 3056 3055 3057 3060 3062 3060 3060 3061 3060 3053 3045 3043 3047 3050 3053 3052 3051 3050 3044 3042 3037 3037 3039 3035 3021 3018 3023 3026 3025 3022 3019 3016 3011 3007 3007 3007 3005 3002 3000 2997
3032 3032 3033 3035 3036 3039 3040 3039 3041 3041 3042 3043 3043 3045 3046 3046 3046 3050 3049 3049 3051 3053 3047 3041 3039 3039 3035 3039 3041 3042 3041 3037 3036 3028 3028 3030 3024 3014 3009 3013 3015 3016 3013 3008 3007 3005 3004 3000 2997 2994 2995 2992 2990 2988
3025 3024 3025 3026 3029 3031 3032 3031 3031 3031 3032 3032 3035 3035 3036 3039 3038 3039 3039 3039 3038 3037 3032 3028 3031 3029 3034 3032 3032 3035 3030 3028 3023 3018 3018 3012 3003 3007 3009 3009 3007 3005 3002 2999 2996 2996 2995 2993 2988 2985 2983 2982 2979 2978
3015 3016 3018 3018 3021 3023 3024 3027 3027 3026 3027 3026 3028 3029 3031 3032 3033 3034 3033 3031 3028 3024 3021 3019 3022 3024 3025 3025 3025 3025 3021 3019 3013 3011 3009 3001 2994 2999 2999 2996 2997 2995 2993 2992 2990 2987 2984 2982 2980 2977 2975 2973 2970 2969
3003 3005 3008 3011 3011 3014 3017 3020 3021 3021 3023 3023 3023 3024 3026 3027 3027 3029 3024 3022 3017 3017 3015 3016 3017 3016 3016 3016 3017 3014 3013 3011 3005 3002 2999 2991 2992 2990 2988 2987 2989 2988 2986 2983 2981 2978 2976 2975 2973 2970 2967 2965 2963 2960
2994 2996 2999 2999 3003 3005 3007 3010 3014 3016 3015 3016 3016 3017 3018 3020 3017 3013 3009 3009 3010 3008 3010 3012 3012 3012 3010 3011 3010 3008 3004 2999 2997 2994 2988 2986 2985 2984 2982 2981 2981 2980 2978 2975 2973 2972 2970 2969 2967 2962 2958 2957 2955 2951
2986 2987 2989 2991 2994 2997 2999 3003 3006 3008 3007 3009 3009 3007 3008 3007 3001 2997 3002 3005 3006 3005 3006 3008 3008 3008 3006 3005 3002 2999 2997 2992 2986 2984 2982 2979 2978 2976 2974 2974 2973 2973 2972 2968 2966 2965 2963 2960 2956 2954 2951 2947 2942 2938
2978 2980 2981 2983 2986 2989 2992 2997 2997 2998 2999 2999 2999 2996 2995 2994 2993 2997 2998 3001 3002 3001 3002 3003 3003 3002 3000 2999 2996 2992 2989 2983 2980 2979 2978 2975 2973 2972 2969 2968 2967 2965 2962 2960 2959 2955 2951 2948 2944 2940 2938 2934 2930 2926
2968 2971 2973 2976 2978 2981 2985 2987 2988 2989 2987 2988 2987 2986 2984 2988 2990 2993 2996 2997 2997 2996 2997 2998 2997 2994 2992 2991 2988 2983 2981 2977 2977 2975 2973 2971 2968 2965 2962 2960 2958 2955 2952 2949 2946 2943 2940 2936 2933 2928 2924 2921 2917 2912
2960 2960 2964 2969 2972 2975 2977 2977 2979 2978 2978 2974 2975 2979 2980 2982 2984 2988 2989 2990 2991 2991 2991 2992 2988 2985 2983 2977 2975 2975 2971 2971 2969 2967 2966 2964 2960 2957 2954 2950 2947 2944 2940 2936 2933 2930 2927 2925 2921 2916 2912 2908 2905 2899
2951 2955 2958 2962 2965 2967 2967 2967 2969 2968 2964 2965 2967 2970 2972 2976 2976 2977 2980 2982 2982 2981 2982 2980 2978 2973 2970 2966 2963 2964 2962 2960 2957 2954 2951 2948 2945 2942 2940 2936 2934 2931 2927 2924 2922 2919 2916 2912 2909 2904 2900 2896 2889 2886
2946 2949 2952 2955 2957 2959 2960 2961 2962 2959 2959 2960 2962 2963 2965 2966 2968 2970 2971 2972 2972 2972 2970 2967 2965 2958 2958 2957 2955 2952 2949 2946 2941 2938 2935 2932 2929 2927 2924 2922 2919 2916 2914 2911 2909 2906 2903 2901 2897 2893 2889 2883 2878 2874
2941 2943 2946 2948 2950 2952 2953 2952 2952 2952 2952 2954 2956 2957 2958 2959 2961 2960 2960 2960 2961 2959 2956 2951 2949 2950 2949 2947 2946 2941 2938 2935 2930 2924 2921 2919 2917 2914 2910 2908 2904 2901 2898 2896 2894 2893 2890 2887 2885 2882 2877 2872 2867 2864
2935 2937 2940 2942 2943 2945 2946 2945 2944 2944 2944 2946 2949 2950 2949 2949 2949 2950 2950 2952 2949 2946 2942 2941 2940 2939 2937 2933 2931 2928 2924 2922 2918 2914 2908 2903 2902 2900 2896 2894 2892 2889 2885 2882 2880 2878 2877 2873 2871 2869 2864 2861 2857 2852
2930 2933 2934 2936 2937 2938 2938 2939 2939 2940 2940 2940 2942 2942 2940 2940 2940 2941 2941 2938 2934 2934 2932 2930 2928 2925 2923 2921 2919 2916 2911 2908 2904 2901 2897 2894 2889 2886 2883 2880 2878 2874 2872 2869 2867 2864 2860 2859 2858 2855 2851 2848 2844 2840
2926 2928 2930 2931 2933 2931 2932 2933 2932 2931 2932 2932 2934 2933 2932 2931 2930 2930 2925 2922 2922 2923 2921 2918 2915 2913 2910 2908 2905 2901 2899 2896 2891 2888 2885 2882 2878 2874 2871 2868 2866 2862 2858 2856 2854 2850 2848 2847 2844 2842 2838 2834 2830 2827
2922 2923 2923 2924 2924 2923 2924 2925 2926 2927 2926 2925 2924 2923 2922 2922 2920 2915 2909 2910 2911 2911 2908 2905 2904 2900 2898 2895 2892 2889 2887 2885 2879 2876 2873 2869 2864 2861 2859 2855 2852 2849 2846 2842 2838 2836 2834 2831 2830 2827 2824 2820 2817 2813
2919 2918 2918 2914 2914 2914 2916 2917 2918 2919 2918 2918 2917 2915 2912 2912 2907 2902 2899 2900 2901 2898 2896 2894 2892 2890 2886 2882 2879 2876 2875 2872 2867 2862 2859 2857 2851 2847 2843 2840 2837 2834 2830 2824 2819 2817 2816 2815 2813 2811 2808 2806 2802 2799
2910 2909 2909 2907 2908 2911 2912 2912 2912 2912 2913 2911 2908 2906 2902 2900 2896 2889 2889 2892 2890 2888 2886 2884 2882 2878 2874 2871 2867 2864 2862 2860 2855 2850 2846 2844 2838 2833 2828 2824 2820 2817 2817 2809 2805 2801 2798 2797 2794 2793 2793 2791 2789 2785
2901 2900 2900 2901 2903 2905 2906 2906 2906 2906 2904 2901 2897 2895 2893 2888 2881 2880 2881 2882 2880 2877 2875 2872 2869 2866 2861 2858 2855 2853 2850 2846 2841 2835 2830 2827 2823 2819 2815 2811 2806 2803 2800 2796 2791 2788 2786 2783 2781 2780 2778 2777 2775 2773
2893 2894 2895 2899 2899 2900 2899 2898 2897 2895 2893 2891 2888 2884 2880 2875 2869 2872 2870 2870 2868 2865 2861 2858 2856 2853 2850 2846 2842 2839 2835 2831 2825 2821 2816 2813 2811 2808 2805 2800 2795 2791 2788 2784 2781 2778 2775 2773 2770 2769 2767 2764 2763 2762
2888 2889 2892 2892 2892 2890 2889 2888 2884 2883 2883 2881 2877 2871 2867 2863 2860 2858 2856 2856 2854 2850 2847 2845 2843 2841 2835 2832 2829 2825 2821 2817 2812 2807 2802 2797 2795 2795 2792 2786 2782 2778 2776 2772 2770 2768 2765 2762 2760 2757 2755 2752 2751 2749
2883 2885 2885 2885 2883 2880 2879 2880 2875 2875 2874 2871 2867 2861 2854 2848 2847 2847 2843 2840 2838 2837 2836 2832 2828 2824 2820 2817 2814 2811 2810 2807 2803 2796 2790 2785 2782 2779 2776 2773 2769 2766 2763 2759 2756 2754 2753 2751 2749 2748 2746 2744 2741 2739
2878 2879 2877 2876 2872 2873 2872 2871 2868 2864 2861 2857 2854 2849 2843 2839 2833 2834 2831 2828 2826 2825 2824 2821 2818 2816 2811 2807 2803 2798 2794 2795 2790 2786 2780 2775 2770 2766 2763 2759 2756 2754 2751 2748 2746 2744 2742 2740 2739 2737 2735 2733 2731 2729
2874 2873 2872 2869 2866 2867 2865 2862 2858 2854 2851 2847 2842 2838 2832 2828 2824 2823 2823 2821 2819 2817 2815 2811 2807 2805 2802 2797 2794 2789 2784 2779 2776 2773 2769 2765 2761 2757 2753 2751 2748 2745 2743 2741 2739 2737 2735 2733 2731 2730 2728 2727 2726 2725
2868 2867 2865 2863 2860 2858 2857 2853 2847 2841 2838 2835 2831 2828 2825 2822 2818 2817 2815 2813 2811 2808 2805 2803 2800 2796 2792 2787 2783 2779 2775 2771 2767 2763 2760 2756 2753 2750 2748 2746 2744 2741 2739 2736 2734 2732 2731 2730 2729 2728 2727 2725 2725 2724